Wind_Speed
37 38 38 38 38 38 38 38 38 37 37 36 35 34 34 33 33 33 33 33 34 34 33 33 32 32 31 32 32 31 31 32 32 32 32 31 31 31 31 31 30 30 30
38 38 39 39 39 39 38 39 39 39 39 39 38 37 36 35 35 35 35 35 35 35 36 35 35 34 34 34 34 34 33 33 33 33 33 33 32 32 31 31 31 31 31
38 39 39 39 40 40 39 39 39 39 40 40 40 40 39 39 38 37 37 37 37 37 37 36 37 36 36 36 36 36 35 35 35 35 35 34 34 34 33 33 32 32 31
39 39 40 40 40 41 41 41 41 40 40 41 42 42 42 42 41 41 39 38 38 38 37 37 37 37 37 38 38 38 37 37 36 36 35 35 35 34 34 34 33 33 33
40 40 40 41 41 41 41 41 42 42 42 43 42 42 43 43 43 42 41 41 40 39 39 38 38 38 39 39 39 39 38 38 38 37 37 36 36 35 35 35 35 34 35
39 40 40 40 41 42 42 41 41 42 43 43 43 44 44 44 44 43 43 42 42 41 41 41 40 39 40 40 39 40 41 41 40 39 39 38 38 38 38 38 37 37 37
39 40 41 41 41 42 43 43 43 43 43 44 44 44 46 46 45 45 44 44 43 43 43 42 41 41 40 40 41 41 42 42 42 42 42 41 40 40 40 40 40 39 39
39 40 41 42 42 42 43 44 44 45 44 44 45 45 45 46 46 46 46 46 45 45 45 45 45 45 45 44 43 42 43 43 43 43 43 43 42 43 43 43 43 42 42
39 39 39 40 41 42 42 43 43 44 44 44 44 45 45 46 46 47 47 47 47 48 48 48 48 47 48 47 46 45 45 45 44 44 44 44 45 45 46 45 45 45 45
39 39 39 39 41 42 43 42 43 43 45 46 47 46 46 47 48 48 48 47 47 48 49 50 49 48 48 48 48 47 46 44 46 46 46 46 47 47 47 47 47 47 47
39 40 40 41 41 42 43 44 45 46 46 47 47 47 47 47 47 47 47 47 47 48 49 50 50 50 50 49 49 48 47 47 48 48 48 48 49 48 49 49 48 47 47
39 40 40 41 42 43 44 45 45 45 45 46 46 46 46 46 46 47 47 48 48 47 47 48 49 50 49 49 49 49 49 48 48 49 49 49 50 50 49 49 49 48 47
39 39 40 41 42 43 44 45 45 45 45 45 45 45 45 46 45 45 46 46 47 46 46 46 46 47 48 48 48 49 49 49 50 50 51 51 51 51 50 51 51 50 49
38 39 40 40 41 41 42 43 43 44 45 45 45 45 44 45 45 44 45 45 45 46 46 45 45 45 47 48 48 48 48 49 51 51 52 52 52 52 52 52 52 51 51
38 38 38 38 39 40 40 41 42 42 43 43 44 44 44 44 44 44 44 43 43 43 43 44 45 46 46 47 47 47 48 49 50 51 53 53 53 52 53 52 53 53 53
37 38 38 38 38 38 39 40 40 40 40 40 40 41 41 41 41 41 42 42 42 43 44 44 45 45 46 47 47 47 47 48 49 50 51 51 51 51 52 52 52 53 53
34 35 35 35 36 37 37 37 37 37 37 37 37 37 37 38 38 38 40 41 41 42 43 42 43 44 45 46 46 47 47 48 49 51 51 51 51 52 53 53 53 53 53
31 31 32 32 33 34 34 34 35 35 35 35 35 34 35 35 36 37 39 39 40 40 41 41 42 43 44 45 46 47 48 49 49 49 50 51 52 52 53 53 53 53 53
28 28 29 30 31 31 32 33 33 34 34 34 34 34 34 35 36 36 37 37 37 38 40 41 42 43 44 45 46 48 49 49 50 51 51 52 52 53 54 53 53 53 53
27 27 27 28 29 29 30 31 31 31 31 31 32 33 35 35 35 35 36 36 37 39 40 41 41 42 44 45 47 48 48 49 50 52 53 53 52 52 52 53 53 52 53
27 27 27 27 28 28 28 28 28 28 29 30 31 32 34 35 36 36 36 36 37 39 40 41 42 42 44 46 47 48 49 49 50 51 52 53 52 53 53 52 51 51 51
27 26 26 26 26 26 26 26 27 28 28 29 30 32 32 33 34 34 35 36 36 38 39 41 42 43 44 45 47 48 49 50 50 51 51 51 52 51 51 50 50 49 49
25 25 25 25 25 26 26 27 28 28 28 28 29 30 31 32 32 33 34 35 37 38 39 40 42 43 44 45 46 47 49 50 50 49 49 49 50 49 49 48 48 48 48
24 24 24 25 25 25 26 26 26 26 27 28 29 30 30 31 32 33 35 37 39 40 41 41 42 43 45 46 47 48 49 48 48 47 47 47 47 47 47 47 47 46 46
23 23 24 24 24 24 24 25 26 26 27 28 28 29 30 32 32 34 36 38 40 41 42 42 44 45 46 47 48 48 47 46 45 46 46 46 45 45 46 46 45 45 44
22 22 22 23 23 24 24 25 25 26 26 27 28 29 30 32 33 35 37 39 40 41 43 44 45 45 46 47 47 47 46 45 45 45 46 45 45 45 43 44 45 44 44
Wind_Direction
259 259 259 258 257 257 258 258 259 259 261 263 264 266 267 269 269 270 271 271 270 270 270 272 273 274 275 276 277 278 278 279 280 280 281 283 284 285 286 286 288 289 290
260 259 258 259 258 257 257 259 259 260 261 263 263 264 266 268 269 270 270 271 271 271 270 271 271 272 273 274 275 276 277 278 279 280 281 282 283 284 284 284 286 287 288
261 259 260 259 258 257 257 258 259 260 261 262 263 265 266 267 268 269 270 271 270 270 270 271 270 271 271 272 273 275 276 277 279 280 280 281 281 282 283 283 284 285 285
262 260 260 260 259 258 258 258 259 260 261 263 263 264 265 266 267 268 268 270 270 270 270 270 271 270 271 272 273 275 275 276 278 279 279 280 281 281 281 281 282 283 284
262 262 262 260 260 259 259 258 258 260 261 262 263 263 264 265 266 267 267 268 269 270 270 271 272 271 272 273 274 274 274 275 276 277 278 279 279 280 280 280 280 281 283
266 263 261 261 260 259 259 260 259 260 262 262 262 262 263 264 265 266 268 268 270 271 271 271 270 271 272 274 274 275 274 274 275 276 278 278 278 279 279 279 279 280 280
268 265 263 261 261 260 260 260 260 260 262 263 263 264 264 263 265 266 268 269 270 270 271 271 270 270 272 272 273 273 273 274 275 276 277 278 278 277 278 278 279 279 279
267 266 265 262 260 261 260 260 261 260 263 264 265 266 264 264 266 266 268 269 269 269 270 270 270 270 270 272 272 274 274 276 276 277 277 276 277 277 277 278 279 279 278
268 267 266 264 262 262 261 261 262 263 263 266 267 267 266 266 267 267 268 268 269 269 269 270 270 271 271 272 272 274 275 276 276 276 276 276 276 276 276 277 278 277 277
269 268 267 266 264 263 263 263 265 266 266 267 267 268 268 268 267 267 267 268 269 269 270 271 271 271 272 272 273 274 275 274 275 276 276 277 277 277 276 277 277 277 276
269 268 268 268 266 264 264 263 265 267 267 267 268 268 268 269 268 268 268 268 269 271 271 270 270 270 270 271 272 273 273 274 275 276 276 276 277 277 276 275 276 276 275
269 268 268 269 268 266 265 267 268 268 267 267 268 268 268 269 269 268 267 267 269 270 270 269 270 270 270 270 272 273 274 275 276 276 276 276 276 276 276 275 275 275 274
269 269 269 269 268 268 268 268 268 269 269 268 269 269 268 269 269 269 269 268 268 269 269 271 271 271 271 271 273 273 273 274 274 275 276 276 276 274 274 275 275 275 274
269 269 270 270 269 270 269 269 269 269 270 269 269 269 270 269 268 268 270 269 268 269 269 271 273 273 272 272 273 273 273 273 274 274 275 275 275 274 275 275 275 275 275
270 270 271 271 270 270 270 270 270 271 271 271 270 270 270 270 270 271 272 271 270 269 270 272 273 274 273 273 274 275 275 277 277 277 276 276 275 274 274 275 274 274 275
270 271 271 271 270 270 270 271 270 270 270 270 271 269 269 270 272 272 271 272 272 271 271 272 273 274 274 275 275 276 278 279 279 279 279 278 276 275 275 274 275 275 275
271 272 272 271 271 271 270 269 269 269 271 271 271 270 269 269 271 272 273 274 273 273 273 274 274 275 276 276 277 278 279 280 280 280 280 279 278 277 277 276 276 276 275
272 273 272 271 271 270 269 269 270 270 271 271 270 268 269 270 271 272 274 274 274 274 275 276 276 277 277 277 278 279 279 280 282 281 281 280 279 278 278 278 278 277 277
273 274 273 272 272 270 269 270 270 270 271 270 269 268 270 271 272 273 275 275 276 277 278 279 279 279 278 279 280 280 281 281 282 282 282 281 280 279 279 279 278 277 276
273 274 275 274 272 272 271 272 272 271 270 270 269 270 270 271 272 274 275 276 278 280 281 282 281 281 280 281 281 281 282 282 283 283 283 282 281 281 280 280 279 277 276
273 274 276 275 274 273 273 273 272 271 271 271 271 271 272 273 274 275 277 278 280 281 282 282 283 283 282 282 283 282 283 283 283 284 283 282 281 280 280 280 279 278 276
273 274 275 275 274 274 273 272 273 273 274 274 274 274 274 275 275 276 277 279 281 284 284 284 285 284 284 285 285 284 284 284 284 285 284 283 282 281 281 281 280 278 276
273 273 275 275 276 275 274 274 274 275 275 276 276 275 276 277 277 277 279 281 284 286 286 286 286 286 286 287 287 287 286 287 287 286 285 284 283 282 281 281 281 280 277
273 273 274 276 277 277 277 276 275 276 276 277 277 278 279 280 280 280 282 283 285 287 288 289 289 288 289 288 288 288 288 288 288 287 287 286 284 283 281 281 281 279 277
276 274 275 276 278 278 279 278 276 277 277 279 279 280 281 282 282 284 285 286 287 287 288 289 289 290 289 289 289 290 290 289 288 288 287 287 285 283 282 280 279 279 277
276 276 277 278 279 280 281 280 278 278 278 279 280 281 282 284 285 287 288 288 289 289 290 290 291 291 290 290 291 291 290 289 289 289 288 287 286 284 281 279 278 278 278
Height
5807 5808 5809 5810 5811 5812 5813 5814 5816 5817 5817 5818 5818 5819 5819 5819 5819 5819 5819 5819 5819 5818 5818 5818 5818 5817 5817 5816 5816 5815 5814 5813 5812 5811 5810 5809 5808 5807 5805 5804 5803 5801 5799
5798 5799 5800 5801 5802 5804 5805 5806 5807 5808 5809 5810 5810 5811 5811 5812 5812 5812 5812 5812 5811 5811 5811 5811 5811 5810 5810 5809 5809 5808 5807 5806 5805 5804 5803 5802 5801 5800 5799 5798 5796 5795 5793
5789 5790 5791 5792 5793 5795 5796 5797 5798 5799 5800 5801 5802 5803 5803 5804 5804 5804 5804 5804 5803 5803 5803 5803 5803 5803 5802 5802 5801 5800 5800 5799 5798 5797 5796 5795 5794 5793 5792 5791 5789 5788 5786
5780 5781 5782 5783 5784 5785 5787 5788 5790 5790 5791 5792 5793 5794 5795 5795 5796 5796 5796 5795 5795 5795 5795 5795 5795 5794 5794 5794 5793 5792 5792 5791 5790 5790 5789 5788 5787 5786 5785 5783 5782 5781 5779
5771 5772 5773 5774 5775 5776 5777 5779 5780 5781 5782 5783 5783 5784 5785 5786 5786 5787 5787 5787 5787 5786 5786 5786 5786 5785 5785 5785 5785 5784 5783 5783 5782 5781 5781 5780 5779 5778 5776 5775 5774 5773 5772
5762 5762 5763 5764 5765 5766 5768 5769 5770 5771 5772 5773 5773 5774 5775 5776 5777 5777 5777 5778 5778 5777 5777 5777 5777 5777 5776 5776 5776 5775 5774 5774 5773 5773 5772 5771 5770 5769 5768 5767 5766 5764 5763
5753 5753 5754 5754 5756 5757 5758 5759 5760 5762 5763 5763 5763 5764 5765 5766 5767 5767 5768 5768 5768 5768 5767 5767 5767 5767 5767 5767 5766 5766 5765 5765 5764 5763 5763 5762 5761 5760 5759 5758 5756 5755 5754
5744 5744 5744 5745 5746 5747 5749 5750 5750 5752 5753 5753 5754 5754 5755 5757 5757 5757 5757 5757 5757 5758 5758 5757 5757 5757 5757 5757 5756 5756 5755 5754 5754 5753 5753 5752 5751 5750 5749 5747 5746 5745 5744
5735 5735 5735 5736 5737 5738 5739 5740 5741 5742 5743 5743 5744 5744 5745 5746 5747 5747 5747 5747 5746 5746 5747 5747 5746 5746 5746 5746 5746 5745 5744 5744 5743 5742 5741 5741 5740 5739 5738 5737 5735 5734 5733
5727 5726 5726 5727 5727 5729 5730 5731 5731 5732 5732 5733 5733 5733 5734 5735 5735 5736 5736 5735 5735 5735 5735 5735 5735 5735 5734 5734 5734 5734 5733 5732 5732 5731 5730 5729 5729 5727 5726 5725 5723 5722 5721
5718 5717 5718 5718 5718 5719 5720 5721 5721 5722 5722 5722 5722 5723 5723 5723 5723 5724 5725 5725 5724 5724 5723 5722 5722 5722 5722 5722 5722 5722 5722 5721 5720 5719 5718 5718 5716 5715 5714 5712 5711 5710 5709
5709 5708 5708 5708 5709 5709 5710 5711 5711 5710 5710 5711 5711 5712 5712 5712 5712 5712 5713 5713 5713 5712 5711 5711 5710 5710 5710 5710 5710 5710 5709 5709 5708 5707 5706 5705 5704 5703 5701 5700 5699 5698 5697
5699 5699 5699 5699 5699 5699 5700 5700 5700 5699 5700 5700 5700 5701 5701 5701 5701 5701 5701 5701 5701 5701 5700 5699 5699 5698 5698 5697 5697 5697 5697 5696 5696 5695 5694 5693 5691 5690 5689 5687 5686 5685 5684
5690 5690 5690 5690 5690 5690 5690 5690 5689 5689 5689 5689 5689 5690 5690 5690 5690 5690 5690 5690 5690 5690 5689 5688 5687 5687 5686 5685 5686 5685 5684 5684 5683 5681 5680 5679 5678 5677 5676 5674 5673 5672 5670
5680 5680 5680 5679 5680 5680 5680 5679 5679 5679 5679 5679 5679 5679 5679 5679 5679 5679 5679 5679 5679 5678 5679 5678 5677 5675 5674 5674 5673 5673 5672 5671 5669 5668 5666 5665 5664 5663 5661 5660 5659 5658 5656
5671 5671 5670 5670 5670 5670 5670 5670 5670 5669 5669 5669 5669 5669 5669 5669 5669 5669 5669 5668 5668 5668 5668 5668 5666 5665 5663 5663 5662 5660 5659 5658 5656 5654 5652 5651 5649 5648 5647 5645 5644 5643 5642
5662 5661 5661 5661 5661 5661 5661 5661 5660 5660 5660 5660 5660 5660 5660 5660 5660 5660 5659 5658 5658 5657 5657 5657 5655 5654 5652 5651 5650 5648 5647 5645 5643 5641 5639 5637 5635 5634 5632 5630 5629 5628 5627
5653 5653 5653 5652 5652 5652 5651 5651 5651 5651 5651 5651 5651 5651 5651 5651 5651 5650 5649 5649 5648 5647 5646 5646 5644 5642 5641 5640 5638 5636 5634 5632 5630 5628 5625 5623 5621 5619 5617 5615 5613 5612 5611
5646 5645 5645 5644 5644 5643 5643 5643 5643 5642 5642 5642 5642 5642 5642 5642 5642 5641 5640 5639 5638 5637 5636 5635 5633 5631 5629 5627 5626 5624 5622 5619 5616 5614 5611 5608 5606 5604 5601 5599 5598 5596 5595
5639 5638 5637 5636 5636 5635 5635 5635 5634 5634 5633 5633 5633 5633 5632 5632 5632 5631 5630 5629 5628 5627 5625 5623 5621 5619 5617 5615 5613 5611 5608 5605 5603 5600 5596 5593 5591 5588 5586 5584 5582 5580 5578
5632 5631 5630 5629 5628 5628 5628 5627 5626 5626 5626 5625 5625 5624 5623 5623 5622 5621 5621 5620 5618 5616 5614 5612 5610 5608 5605 5603 5600 5597 5594 5592 5588 5585 5582 5578 5576 5574 5571 5569 5566 5564 5562
5624 5624 5623 5622 5621 5621 5620 5620 5619 5618 5618 5617 5616 5615 5614 5613 5613 5612 5611 5610 5608 5606 5603 5601 5598 5596 5593 5590 5587 5584 5580 5578 5575 5572 5568 5564 5560 5558 5556 5553 5551 5548 5547
5617 5616 5616 5615 5614 5614 5613 5612 5611 5611 5610 5609 5608 5607 5606 5605 5603 5602 5601 5600 5598 5595 5593 5590 5587 5584 5581 5578 5574 5571 5567 5563 5560 5556 5553 5550 5545 5543 5540 5538 5535 5533 5531
5610 5609 5609 5608 5607 5606 5605 5604 5603 5602 5601 5601 5599 5598 5597 5596 5594 5593 5592 5590 5587 5585 5582 5579 5575 5572 5568 5565 5561 5558 5554 5550 5546 5542 5538 5536 5532 5529 5526 5524 5521 5518 5516
5603 5602 5601 5601 5600 5599 5598 5596 5595 5594 5593 5592 5591 5590 5588 5587 5585 5583 5582 5579 5576 5573 5570 5566 5563 5559 5555 5552 5548 5544 5540 5537 5533 5529 5525 5522 5519 5516 5513 5510 5507 5505 5503
5596 5595 5594 5593 5592 5591 5590 5589 5587 5586 5585 5584 5583 5581 5579 5578 5575 5573 5571 5568 5565 5561 5557 5554 5550 5546 5542 5538 5534 5530 5527 5523 5519 5516 5511 5508 5505 5502 5501 5498 5495 5492 5490